Location: Clanezzo
(45.7500°N, 9.6000°E)
Time: 21:41:42
(UTC+00:00)

SPROUT - Pass Details

Date: 02 July 2022
Orbit: 588 x 598 km, 97.9° (Epoch: 07 August)

Event Time Altitude Azimuth Distance (km) Brightness Sun altitude
Exits shadow 23:03:51 16° 98° (E) 1,584 ? -21.1°
Maximum altitude 23:05:41 21° 64° (ENE) 1,364 ? -21.1°
Drops below altitude 10° 23:08:47 10° 16° (NNE) 1,927 ? -21.2°
Sets 23:11:22 0° 0° (N) 2,835 ? -21.2°
